SCP
0 0 0 0 0 0 0 0 0 0 0 0 0 0 0 0 0 0 0 0 0 0 0 0 0 0 0 0 0 0 0 0 0 0 0 0 0 0 0 0 0 0 0
0 0 0 0 0 0 0 0 0 0 0 0 0 0 0 0 0 0 0 0 0 0 0 0 0 0 0 0 0 0 0 0 0 0 0 0 0 0 0 0 0 0 0
0 0 0 0 0 0 0 0 0 0 0 0 0 0 0 0 0 0 0 0 0 0 0 0 0 0 0 0 0 0 0 0 0 0 0 0 0 0 0 0 0 0 0
0 0 0 0 0 0 0 0 0 0 0 0 0 0 0 0 0 0 0 0 0 0 0 0 0 0 0 0 0 0 0 0 0 0 0 0 0 0 0 0 0 0 0
0 0 0 0 0 0 -0 -0 0 0 0 0 0 0 0 0 0 0 0 0 0 0 0 0 0 0 0 0 0 0 0 0 0 0 0 0 0 0 0 0 0 0 0
0 0 0 0 0 0 0 0 0 0 0 0 0 0 0 0 0 0 0 0 0 0 0 0 0 0 0 0 0 0 0 0 0 0 0 0 0 0 0 0 0 0 0
0 0 0 0 0 0 0 0 0 0 0 0 0 0 0 0 0 0 0 0 0 0 0 0 0 0 0 0 0 0 0 0 0 0 0 0 0 0 0 0 0 0 0
0 0 0 0 0 0 0 0 0 0 0 0 0 0 0 0 0 0 0 0 0 0 0 0 0 0 0 0 0 0 0 0 0 0 0 0 0 0 0 0 0 0 0
0 0 0 0 0 0 0 0 0 0 0 0 0 0 0 0 0 0 0 0 0 0 0 0 0 0 0 0 0 0 0 0 0 0 0 0 0 0 0 0 0 0 0
0 0 0 0 0 0 0 0 0 0 0 0 0 0 0 0 0 0 0 0 0 0 0 0 0 0 0 0 0 0 0 0 0 0 0 0 0 0 0 0 0 0 0
0 0 0 0 0 0 0 0 0 0 0 0 0 0 0 0 0 0 0 0 0 0 0 0 0 0 0 0 0 0 0 0 0 0 0 0 0 0 0 0 0 0 0
0 0 0 0 0 0 0 0 0 0 0 0 0 0 0 0 0 0 0 0 0 0 0 0 0 0 0 0 0 0 0 0 0 0 0 0 0 0 0 0 0 0 0
0 0 0 0 0 0 0 0 0 0 0 0 0 0 0 0 0 0 0 0 0 0 0 0 0 0 0 0 0 0 0 0 0 0 0 0 0 0 0 0 0 0 0
0 0 0 0 0 0 0 0 0 0 0 0 0 0 0 0 0 0 0 0 0 0 0 0 0 0 0 0 0 0 0 0 0 0 0 0 0 0 0 0 0 0 0
0 0 0 0 0 0 0 0 0 0 0 0 0 0 0 0 0 0 0 0 0 0 0 0 0 0 0 0 0 0 0 0 0 0 0 0 0 0 0 0 0 0 0
0 0 0 0 0 0 0 0 0 0 0 0 0 0 0 0 0 0 0 0 0 0 0 0 0 0 0 0 0 0 0 0 0 0 0 0 0 0 0 0 0 0 0
0 0 0 0 0 0 0 0 0 0 0 0 0 0 0 0 0 0 0 0 0 0 0 0 0 0 0 0 0 0 0 0 0 0 0 0 0 0 0 0 0 0 0
0 0 0 0 0 0 0 0 0 0 0 0 0 0 0 0 0 0 0 0 0 0 0 0 0 0 0 0 0 0 0 0 0 0 0 0 0 0 0 0 -0 0 0
0 0 0 0 0 0 0 0 0 0 0 0 0 0 0 0 0 0 0 0 0 0 0 0 0 0 0 0 0 0 0 0 0 0 0 0 0 0 0 0 -0 0 0
0 0 0 0 0 0 0 0 0 0 0 0 0 0 0 0 0 0 0 0 0 0 0 0 0 0 0 0 0 0 0 0 0 0 0 0 0 0 0 0 0 0 0
0 0 0 0 0 0 0 0 0 0 0 0 0 0 0 0 0 0 0 0 0 0 0 0 0 0 0 0 0 0 0 0 0 0 0 0 0 0 0 0 0 0 0
0 0 0 0 0 0 0 0 0 0 0 0 0 0 0 0 0 0 0 0 0 0 0 0 0 0 0 0 0 0 0 0 0 0 0 0 0 0 0 0 0 0 0
0 0 0 0 0 0 0 0 0 0 0 0 0 0 0 0 0 0 0 0 0 0 0 0 0 0 0 0 0 0 0 0 0 0 0 0 0 0 0 0 0 0 0
0 0 0 0 0 0 0 0 0 0 0 0 0 0 0 0 0 0 0 0 0 0 0 0 0 0 0 0 0 0 0 0 0 0 0 0 0 0 0 0 0 0 0
0 0 0 0 0 0 0 0 0 0 0 0 0 0 0 0 0 0 0 0 0 0 0 0 0 0 0 0 0 0 0 0 -0 0 0 0 0 0 0 0 0 0 0
0 0 0 0 0 0 0 0 0 0 0 0 0 0 0 0 0 0 0 0 0 0 0 0 0 0 0 0 0 0 0 0 0 0 0 0 0 0 0 0 0 0 0
Wind_Speed
10 9 9 9 9 8 7 9 8 7 7 7 6 5 5 5 4 3 3 3 5 5 6 7 9 7 6 6 5 5 6 5 6 3 1 1 1 1 3 4 5 5 6
11 10 11 10 9 9 10 11 10 9 9 8 7 7 7 6 5 4 4 3 4 5 6 6 8 7 8 7 6 7 6 7 6 5 2 2 2 3 4 5 5 6 6
12 12 12 12 11 11 12 11 10 10 10 9 8 8 8 7 6 6 6 5 5 5 5 6 7 7 8 7 7 7 6 6 6 5 3 2 2 3 5 5 7 6 7
12 12 13 14 13 13 12 11 11 11 11 10 10 10 9 8 8 7 6 6 6 5 5 5 6 6 7 8 7 8 7 7 6 5 5 3 3 4 5 5 5 5 5
12 12 13 14 14 13 12 11 11 11 12 11 10 9 9 8 8 8 8 7 6 6 5 6 6 7 9 8 6 7 8 7 6 6 6 5 5 6 6 5 7 7 5
12 13 13 13 13 13 13 12 11 11 11 10 10 10 9 8 10 13 9 7 6 6 6 6 6 7 9 11 12 11 11 9 9 8 7 7 7 7 6 8 9 7 5
12 13 13 13 13 13 14 13 11 10 10 10 10 10 10 10 13 13 13 8 7 7 7 6 6 5 7 7 9 11 12 13 12 10 9 9 9 10 11 11 9 6 6
13 13 13 13 14 13 13 13 12 9 8 8 9 9 9 10 13 13 12 8 8 8 8 8 7 7 6 7 6 7 8 9 12 10 9 9 9 10 11 11 11 9 9
14 14 14 14 14 14 14 12 11 9 8 8 7 9 9 9 11 11 10 5 6 8 8 8 7 8 8 9 8 8 7 7 8 12 11 10 12 15 15 13 13 13 10
14 14 14 14 14 14 13 12 10 9 9 8 8 8 8 8 10 11 9 4 6 6 6 6 8 9 9 9 9 9 9 8 7 7 8 10 13 17 19 16 15 15 13
14 14 14 13 13 13 11 10 9 8 7 7 7 7 7 8 9 11 10 6 6 6 5 5 5 7 9 10 10 9 9 8 8 8 7 9 10 11 11 10 10 14 14
14 14 14 13 12 10 9 8 7 6 6 5 6 6 5 6 8 9 11 11 9 7 6 5 4 6 7 9 9 9 11 10 7 7 8 8 9 10 9 9 8 7 6
14 14 13 13 10 9 8 7 6 4 4 4 5 5 5 4 5 10 11 11 11 8 6 6 6 5 5 6 9 11 12 8 8 8 8 8 8 10 10 10 10 9 10
13 12 11 11 10 8 6 5 4 3 3 4 5 5 4 4 4 4 4 5 7 7 5 5 4 4 4 5 6 9 8 8 8 8 8 8 8 10 10 11 11 10 9
12 11 10 9 9 7 6 5 5 4 4 4 4 4 4 5 6 7 5 4 5 5 5 3 3 2 3 3 4 6 6 7 8 7 9 10 10 10 9 9 9 9 8
10 10 7 7 7 6 6 6 4 4 4 5 5 4 4 5 4 5 6 6 6 8 6 4 4 4 4 4 5 6 6 7 8 9 10 10 11 11 9 8 8 9 9
10 9 7 6 6 6 5 5 5 4 4 4 1 2 4 3 2 3 4 6 7 9 4 4 4 4 4 4 4 6 6 7 8 9 10 10 10 10 10 10 9 9 9
10 9 8 5 5 5 5 4 3 3 2 2 4 5 2 1 3 5 7 7 5 4 3 4 4 4 4 5 5 6 7 8 8 9 9 9 9 10 10 10 10 10 9
8 7 6 5 4 4 4 4 3 2 2 1 2 3 5 5 6 6 5 2 4 4 4 3 3 3 4 5 5 6 8 8 9 9 9 9 9 9 9 9 8 11 9
6 10 8 4 4 4 4 3 3 2 2 1 1 2 1 1 2 2 1 1 2 2 3 3 3 4 4 5 6 7 7 8 9 8 8 8 8 8 9 10 9 9 8
6 7 9 5 4 3 3 3 2 2 2 1 1 2 1 1 2 2 0 0 1 1 2 3 3 4 4 5 5 7 9 8 8 8 8 8 8 8 8 8 8 8 8
4 4 4 4 3 3 3 2 2 2 1 1 1 2 2 1 1 1 0 0 0 1 1 3 3 4 5 5 6 7 7 8 8 8 8 8 8 8 8 8 8 8 8
5 4 4 3 3 3 3 2 2 2 1 1 1 1 1 1 1 1 0 1 1 1 1 2 3 4 4 5 6 7 8 8 8 10 10 9 8 8 8 8 10 9 9
5 4 4 3 3 3 3 3 2 2 1 1 1 1 1 1 1 1 1 1 1 1 1 2 3 5 7 6 6 6 7 8 10 10 12 11 9 8 8 8 9 10 9
6 5 3 2 2 2 2 2 2 2 2 1 1 2 2 1 1 1 1 2 2 2 3 2 2 4 8 10 8 7 10 11 10 9 9 9 10 9 9 9 8 8 8
7 6 4 3 2 2 1 1 1 2 2 2 2 2 2 2 2 2 2 2 3 4 4 2 3 5 8 8 10 11 11 10 11 11 9 8 9 8 8 7 9 8 9
Wind_Direction
274 268 265 261 255 248 244 246 244 244 242 246 252 256 262 266 264 266 274 271 251 241 232 224 226 217 210 204 197 196 202 205 235 251 239 243 135 100 68 64 65 70 83
275 273 268 265 259 250 246 244 240 239 238 237 241 248 255 256 251 249 259 261 261 256 247 240 239 227 220 210 200 201 200 201 216 240 240 218 177 147 114 92 78 75 80
288 285 281 277 269 258 250 244 238 235 236 233 229 236 245 248 247 245 244 246 240 248 251 244 245 237 231 217 209 205 199 195 204 221 229 206 165 146 125 102 94 85 82
298 293 288 284 279 272 263 251 241 234 232 231 227 229 236 243 245 244 242 240 237 236 239 244 245 240 239 229 218 212 197 190 197 213 222 212 182 156 142 133 118 95 89
301 297 292 289 287 282 274 263 253 242 235 228 224 225 228 233 240 238 234 234 233 234 234 235 241 245 244 235 224 214 195 191 194 205 213 205 188 172 160 143 132 116 88
298 295 294 293 291 288 282 274 261 248 239 228 220 220 222 227 232 232 229 231 232 235 241 242 244 251 252 240 229 217 199 193 197 200 208 206 195 178 154 149 144 140 124
294 294 294 293 291 290 290 285 273 258 243 231 224 216 219 227 231 237 240 233 234 236 239 243 250 245 249 247 232 219 210 205 199 198 207 207 190 176 160 158 159 144 130
296 295 294 293 292 290 287 284 275 263 247 236 229 218 216 228 229 233 240 235 234 239 238 237 241 250 249 237 225 218 215 214 213 213 220 210 189 172 165 153 140 114 105
301 298 297 293 290 288 285 280 276 265 253 237 230 221 216 228 231 234 235 222 232 242 241 237 238 248 248 231 218 216 214 219 220 218 214 200 173 160 150 140 140 136 133
305 302 299 295 290 287 283 277 273 263 254 242 232 223 218 226 234 237 232 214 229 239 243 240 237 244 251 229 215 210 211 209 195 192 188 175 165 159 158 158 153 149 143
306 303 300 297 292 288 282 277 271 261 247 236 231 226 221 226 237 240 232 210 219 229 234 236 237 242 248 236 220 215 209 190 186 181 168 161 157 158 161 158 158 156 155
308 306 303 300 297 299 290 286 278 262 246 234 230 232 230 230 231 239 236 222 213 218 227 229 236 248 252 242 223 210 187 176 175 169 161 157 154 154 153 148 137 127 128
311 310 310 309 305 301 296 289 282 261 237 225 223 229 234 231 234 235 239 234 222 215 222 217 226 253 260 245 223 194 178 177 171 166 159 151 144 141 138 131 122 111 107
315 315 316 316 314 310 303 293 280 258 245 230 219 223 229 233 234 228 222 223 218 210 208 207 220 245 245 232 200 188 186 179 169 160 147 135 132 137 142 143 141 135 126
318 318 320 320 319 317 311 298 285 261 246 234 218 211 213 228 231 215 203 204 196 189 173 184 200 216 227 207 191 183 178 167 155 146 144 142 142 141 143 146 145 147 145
322 323 323 323 322 322 322 323 312 289 283 257 240 224 224 233 249 224 215 208 189 169 166 188 202 209 213 199 185 178 172 163 153 147 146 146 147 148 146 149 154 158 155
321 320 319 323 326 327 329 331 335 356 38 48 19 236 236 250 247 195 173 167 167 165 179 198 204 207 206 195 184 172 160 152 146 143 143 145 146 149 153 157 162 164 163
320 319 324 320 322 323 325 326 327 337 4 29 35 38 51 97 123 134 141 139 150 177 202 207 206 200 197 182 169 155 144 142 140 137 137 139 144 148 154 160 165 166 159
319 316 316 319 322 323 327 332 340 357 26 33 43 48 62 84 98 124 146 155 165 183 202 208 197 182 168 152 142 141 141 140 138 136 136 138 142 146 150 156 157 154 152
315 323 332 329 332 336 341 349 358 17 32 32 41 52 52 71 97 116 128 148 178 193 190 184 169 156 144 136 134 130 130 133 134 134 137 139 142 145 147 148 150 155 159
312 320 334 338 337 336 341 350 354 6 20 39 44 54 63 78 101 121 132 175 192 174 155 147 140 141 134 128 129 131 131 134 137 138 139 142 144 143 144 146 149 150 147
308 312 322 326 329 335 338 343 352 2 26 58 71 81 86 80 97 120 133 42 60 120 135 137 132 137 137 135 138 139 138 139 141 142 142 143 144 144 143 144 146 148 147
312 314 324 333 337 345 357 2 6 8 19 40 102 113 126 109 105 112 97 38 77 116 126 128 131 133 139 144 153 154 153 154 154 150 145 145 146 147 148 150 153 155 159
321 314 315 328 342 355 3 8 14 17 26 61 97 113 114 101 93 81 47 40 53 75 104 123 138 147 150 151 156 160 157 151 149 150 150 149 150 151 152 156 162 168 169
332 324 320 320 329 342 358 11 23 28 30 49 79 99 106 98 89 80 51 40 43 57 71 91 124 147 155 156 155 149 142 141 144 146 148 149 153 155 158 161 163 164 162
345 342 334 323 314 319 338 7 34 42 43 49 64 86 100 101 91 75 54 37 27 33 43 70 121 133 141 149 145 139 139 143 144 145 148 148 151 157 160 162 165 166 165